WV5G-13 Weather Reports


Display with metric or nautical units.
time (UTC)temp
F
wind
direction
speed
MPH
gust
MPH
rain 1hr
in
rain 24hr
in
rain mn
in
humidity
%
barometer
mb
20260906134752 78 192 3.0 7.0 0.00 0.00 0.00 55 1016.1
20260906134247 78 233 4.0 8.0 0.00 0.00 0.00 55 1015.7
20260906133742 77 243 6.0 7.0 0.00 0.00 0.00 55 1015.9
20260906133238 77 226 6.0 8.0 0.00 0.00 0.00 56 1015.6
20260906132733 76 197 5.0 8.0 0.00 0.00 0.00 56 1015.7
20260906132228 76 214 5.0 8.0 0.00 0.00 0.00 56 1015.5
20260906131724 76 221 6.0 10.0 0.00 0.00 0.00 57 1015.6
20260906131219 76 210 3.0 11.0 0.00 0.00 0.00 57 1015.5
20260906130714 76 243 4.0 10.0 0.00 0.00 0.00 57 1015.5
20260906130209 76 210 2.0 10.0 0.00 0.00 0.00 57 1015.5
20260906125707 75 219 5.0 10.0 0.00 0.00 0.00 57 1015.5
20260906125206 75 215 5.0 11.0 0.00 0.00 0.00 58 1015.2
20260906124701 75 211 7.0 10.0 0.00 0.00 0.00 58 1015.5
20260906124157 75 189 6.0 10.0 0.00 0.00 0.00 58 1015.4
20260906123655 75 186 7.0 8.0 0.00 0.00 0.00 59 1014.9
20260906123151 74 202 3.0 8.0 0.00 0.00 0.00 59 1015.0
20260906122650 74 158 3.0 6.0 0.00 0.00 0.00 59 1015.2
20260906122146 74 192 2.0 5.0 0.00 0.00 0.00 59 1015.1
20260906121642 74 204 1.0 3.0 0.00 0.00 0.00 59 1015.5
20260906121138 74 155 2.0 3.0 0.00 0.00 0.00 59 1015.4
20260906120633 74 130 1.0 2.0 0.00 0.00 0.00 58 1015.2
20260906120130 75 202 1.0 5.0 0.00 0.00 0.00 58 1015.2
20260906115625 75 204 3.0 10.0 0.00 0.00 0.00 58 1015.1
20260906115121 75 163 3.0 5.0 0.00 0.00 0.00 57 1015.0
20260906114619 75 258 4.0 7.0 0.00 0.00 0.00 58 1015.4
20260906114114 75 210 4.0 5.0 0.00 0.00 0.00 57 1015.0
20260906113609 75 187 2.0 5.0 0.00 0.00 0.00 57 1015.1
20260906113104 75 182 1.0 7.0 0.00 0.00 0.00 57 1015.2
20260906112604 75 230 4.0 7.0 0.00 0.00 0.00 57 1015.1
20260906112100 75 184 3.0 7.0 0.00 0.00 0.00 56 1015.0
20260906111559 75 210 2.0 7.0 0.00 0.00 0.00 56 1015.1
20260906111055 76 169 3.0 7.0 0.00 0.00 0.00 56 1015.0
20260906110554 75 222 4.0 8.0 0.00 0.00 0.00 56 1014.8
20260906110054 75 217 4.0 6.0 0.00 0.00 0.00 56 1014.9
20260906105549 75 200 3.0 6.0 0.00 0.00 0.00 56 1014.7
20260906105045 75 223 4.0 7.0 0.00 0.00 0.00 56 1015.0
20260906104543 76 229 4.0 6.0 0.00 0.00 0.00 56 1014.7
20260906104038 76 228 3.0 7.0 0.00 0.00 0.00 56 1014.8
20260906103536 76 211 0.0 6.0 0.00 0.00 0.00 56 1014.8
20260906103032 76 191 1.0 5.0 0.00 0.00 0.00 56 1014.9
20260906102532 76 177 4.0 6.0 0.00 0.00 0.00 56 1014.8
20260906102027 75 201 2.0 5.0 0.00 0.00 0.00 56 1014.9
20260906101521 75 176 2.0 5.0 0.00 0.00 0.00 56 1014.7
20260906101016 75 250 2.0 5.0 0.00 0.00 0.00 56 1014.6
20260906100512 76 209 5.0 5.0 0.00 0.00 0.00 55 1014.5
20260906100007 76 234 6.0 6.0 0.00 0.00 0.00 55 1014.6
20260906095501 76 211 4.0 5.0 0.00 0.00 0.00 55 1014.3
20260906094956 76 214 3.0 6.0 0.00 0.00 0.00 54 1014.6
20260906094455 76 195 4.0 5.0 0.00 0.00 0.00 54 1014.7
20260906093952 76 249 2.0 5.0 0.00 0.00 0.00 54 1014.5
20260906093448 77 249 5.0 6.0 0.00 0.00 0.00 53 1014.6
20260906092947 77 183 5.0 5.0 0.00 0.00 0.00 53 1014.7
20260906092442 77 196 3.0 5.0 0.00 0.00 0.00 52 1014.9
20260906091937 77 197 2.0 7.0 0.00 0.00 0.00 52 1014.3
20260906091433 77 220 4.0 6.0 0.00 0.00 0.00 52 1014.7
20260906090929 78 230 3.0 6.0 0.00 0.00 0.00 52 1014.6
20260906090424 78 240 5.0 7.0 0.00 0.00 0.00 52 1014.6
20260906085924 78 236 5.0 7.0 0.00 0.00 0.00 51 1014.6
20260906085418 78 219 5.0 7.0 0.00 0.00 0.00 51 1014.5
20260906084917 78 231 5.0 9.0 0.00 0.00 0.00 50 1014.5
20260906084412 79 207 3.0 9.0 0.00 0.00 0.00 50 1014.6
20260906083911 79 220 4.0 9.0 0.00 0.00 0.00 50 1014.7
20260906083407 79 212 6.0 10.0 0.00 0.00 0.00 49 1014.7
20260906082906 79 206 4.0 9.0 0.00 0.00 0.00 49 1014.5
20260906082401 80 220 5.0 9.0 0.00 0.00 0.00 49 1014.6
20260906081857 80 201 5.0 12.0 0.00 0.00 0.00 48 1014.5
20260906081353 80 207 5.0 9.0 0.00 0.00 0.00 48 1014.5
20260906080849 80 200 2.0 9.0 0.00 0.00 0.00 49 1014.5
20260906080345 80 215 3.0 9.0 0.00 0.00 0.00 48 1014.3
20260906075844 80 198 7.0 10.0 0.00 0.00 0.00 48 1014.6
20260906075339 80 169 4.0 8.0 0.00 0.00 0.00 48 1014.6
20260906074834 80 153 5.0 8.0 0.00 0.00 0.00 48 1014.7
20260906074334 80 167 3.0 9.0 0.00 0.00 0.00 48 1014.3
20260906073833 80 177 1.0 7.0 0.00 0.00 0.00 48 1014.5
20260906073328 80 214 2.0 6.0 0.00 0.00 0.00 48 1014.5
20260906072825 80 194 4.0 8.0 0.00 0.00 0.00 47 1014.7
20260906072320 80 184 4.0 11.0 0.00 0.00 0.00 47 1014.5
20260906071816 80 195 4.0 7.0 0.00 0.00 0.00 48 1014.7
20260906071316 80 202 4.0 7.0 0.00 0.00 0.00 48 1014.7
20260906070812 80 180 4.0 5.0 0.00 0.00 0.00 48 1014.8
20260906070308 77 177 5.0 5.0 0.00 0.00 0.00 52 1014.8
20260906065802 77 121 2.0 3.0 0.00 0.00 0.00 53 1014.7
20260906065257 77 127 3.0 4.0 0.00 0.00 0.00 53 1014.7
20260906064753 78 126 3.0 4.0 0.00 0.00 0.00 52 1014.6
20260906064249 80 107 2.0 3.0 0.00 0.00 0.00 49 1014.8
20260906063743 80 160 4.0 5.0 0.00 0.00 0.00 48 1014.8
20260906063239 80 180 3.0 5.0 0.00 0.00 0.00 48 1014.9
20260906062734 80 180 2.0 5.0 0.00 0.00 0.00 49 1014.8
20260906062233 79 165 3.0 5.0 0.00 0.00 0.00 49 1014.7
20260906061729 80 178 2.0 4.0 0.00 0.00 0.00 48 1014.8
20260906061225 80 164 3.0 4.0 0.00 0.00 0.00 48 1014.8
20260906060721 81 171 3.0 5.0 0.00 0.00 0.00 47 1014.8
20260906060218 81 180 4.0 8.0 0.00 0.00 0.00 46 1014.9
20260906055713 81 166 4.0 9.0 0.00 0.00 0.00 46 1015.0
20260906055209 81 174 4.0 9.0 0.00 0.00 0.00 46 1014.7
20260906054704 81 165 4.0 7.0 0.00 0.00 0.00 46 1014.9
20260906054158 81 160 4.0 9.0 0.00 0.00 0.00 46 1014.8
20260906053655 80 180 5.0 7.0 0.00 0.00 0.00 47 1014.7
20260906053150 80 142 3.0 7.0 0.00 0.00 0.00 48 1014.7
20260906052645 80 130 3.0 6.0 0.00 0.00 0.00 48 1014.7
20260906052142 80 165 5.0 10.0 0.00 0.00 0.00 47 1014.7
20260906051638 79 163 2.0 4.0 0.00 0.00 0.00 50 1014.5
20260906051137 79 153 3.0 4.0 0.00 0.00 0.00 50 1014.8
20260906050633 79 184 3.0 5.0 0.00 0.00 0.00 50 1014.7
20260906050128 80 139 3.0 8.0 0.00 0.00 0.00 48 1014.7
20260906045627 80 124 4.0 7.0 0.00 0.00 0.00 48 1014.9
20260906045122 80 150 5.0 5.0 0.00 0.00 0.00 48 1014.9
20260906044618 81 162 2.0 7.0 0.00 0.00 0.00 47 1014.8
20260906044113 82 132 8.0 9.0 0.00 0.00 0.00 46 1014.8
20260906043609 82 142 7.0 9.0 0.00 0.00 0.00 46 1014.7
20260906043104 82 144 5.0 9.0 0.00 0.00 0.00 45 1014.8
20260906042603 82 140 6.0 9.0 0.00 0.00 0.00 45 1014.7
20260906042052 83 136 6.0 12.0 0.00 0.00 0.00 44 1014.7
20260906041548 83 137 5.0 11.0 0.00 0.00 0.00 43 1014.8
20260906041043 84 146 8.0 11.0 0.00 0.00 0.00 43 1014.7
20260906040538 84 147 5.0 10.0 0.00 0.00 0.00 43 1014.7
20260906040028 84 143 5.0 10.0 0.00 0.00 0.00 42 1014.8
20260906035523 84 143 6.0 10.0 0.00 0.00 0.00 42 1014.7
20260906035019 84 143 7.0 11.0 0.00 0.00 0.00 42 1015.0
20260906034519 84 186 7.0 9.0 0.00 0.00 0.00 42 1014.8
20260906034014 84 159 5.0 9.0 0.00 0.00 0.00 42 1015.0
20260906033508 84 151 7.0 10.0 0.00 0.00 0.00 42 1014.7
20260906033004 84 166 6.0 10.0 0.00 0.00 0.00 42 1014.7
20260906032500 84 138 9.0 13.0 0.00 0.00 0.00 41 1014.5
20260906031954 84 141 7.0 11.0 0.00 0.00 0.00 41 1014.6
20260906031450 84 140 7.0 11.0 0.00 0.00 0.00 41 1014.5
20260906030946 85 156 4.0 10.0 0.00 0.00 0.00 40 1014.3
20260906030440 85 150 5.0 9.0 0.00 0.00 0.00 40 1014.3
20260906025940 85 141 8.0 12.0 0.00 0.00 0.00 40 1013.9
20260906025434 85 148 7.0 10.0 0.00 0.00 0.00 40 1013.8
20260906024933 85 157 6.0 8.0 0.00 0.00 0.00 40 1013.7
20260906024432 85 152 5.0 12.0 0.00 0.00 0.00 39 1013.7
20260906023927 85 138 6.0 9.0 0.00 0.00 0.00 39 1013.8
20260906023424 86 141 6.0 11.0 0.00 0.00 0.00 39 1013.6
20260906022924 86 147 5.0 9.0 0.00 0.00 0.00 39 1013.6
20260906022419 85 149 4.0 7.0 0.00 0.00 0.00 40 1013.5
20260906021909 86 154 3.0 7.0 0.00 0.00 0.00 40 1013.8
20260906021408 86 159 3.0 7.0 0.00 0.00 0.00 40 1013.6
20260906020902 86 148 7.0 8.0 0.00 0.00 0.00 40 1013.5
20260906020357 86 151 4.0 8.0 0.00 0.00 0.00 40 1013.6
20260906015852 86 140 6.0 9.0 0.00 0.00 0.00 40 1013.5
20260906015351 86 130 7.0 10.0 0.00 0.00 0.00 39 1013.2
20260906014850 87 135 8.0 10.0 0.00 0.00 0.00 39 1013.1
20260906014345 87 146 7.0 10.0 0.00 0.00 0.00 39 1012.9
20260906013841 87 146 7.0 11.0 0.00 0.00 0.00 39 1012.8
20260906013337 87 167 3.0 10.0 0.00 0.00 0.00 39 1012.9
20260906012832 87 135 5.0 11.0 0.00 0.00 0.00 39 1012.7
20260906012327 88 155 6.0 9.0 0.00 0.00 0.00 38 1012.3
20260906011827 88 139 7.0 13.0 0.00 0.00 0.00 38 1012.6
20260906011322 89 129 9.0 15.0 0.00 0.00 0.00 38 1012.7
20260906010818 89 135 9.0 14.0 0.00 0.00 0.00 37 1012.7
20260906010314 89 132 10.0 16.0 0.00 0.00 0.00 37 1012.5
20260906005809 90 145 7.0 13.0 0.00 0.00 0.00 36 1012.6
20260906005308 90 142 8.0 11.0 0.00 0.00 0.00 36 1012.6
20260906004806 90 143 8.0 10.0 0.00 0.00 0.00 36 1012.9
20260906004301 91 134 11.0 14.0 0.00 0.00 0.00 35 1012.5
20260906003756 91 138 13.0 14.0 0.00 0.00 0.00 34 1012.6
20260906003252 91 133 7.0 12.0 0.00 0.00 0.00 35 1012.5
20260906002746 91 137 9.0 11.0 0.00 0.00 0.00 34 1012.5
20260906002241 92 133 9.0 13.0 0.00 0.00 0.00 34 1012.5
20260906001736 92 132 9.0 13.0 0.00 0.00 0.00 34 1012.5
20260906001231 92 139 10.0 16.0 0.00 0.00 0.00 33 1012.2
20260906000727 92 133 11.0 13.0 0.00 0.00 0.00 33 1012.5
20260906000227 92 127 12.0 15.0 0.00 0.00 0.00 33 1012.1
20260905235721 92 132 12.0 15.0 0.00 0.00 0.00 33 1011.9
20260905235216 93 130 12.0 19.0 0.00 0.00 0.00 33 1012.0
20260905234711 93 137 12.0 17.0 0.00 0.00 0.00 33 1011.8
20260905234207 93 133 15.0 18.0 0.00 0.00 0.00 33 1011.9
20260905233702 93 139 9.0 21.0 0.00 0.00 0.00 33 1011.7
20260905233201 94 154 8.0 17.0 0.00 0.00 0.00 32 1011.7
20260905232656 94 136 7.0 9.0 0.00 0.00 0.00 32 1011.5
20260905232152 95 152 5.0 13.0 0.00 0.00 0.00 32 1011.3
20260905231648 95 133 7.0 13.0 0.00 0.00 0.00 29 1011.3
20260905231143 96 166 6.0 11.0 0.00 0.00 0.00 29 1011.3
20260905230639 96 214 5.0 6.0 0.00 0.00 0.00 28 1011.3
20260905230137 96 220 5.0 11.0 0.00 0.00 0.00 28 1011.7
20260905225636 97 232 4.0 10.0 0.00 0.00 0.00 29 1011.3
20260905225131 96 151 5.0 11.0 0.00 0.00 0.00 29 1011.6
20260905224630 97 180 7.0 11.0 0.00 0.00 0.00 29 1011.7
20260905224125 97 141 9.0 13.0 0.00 0.00 0.00 28 1011.6
20260905223622 97 173 3.0 9.0 0.00 0.00 0.00 28 1011.2
20260905223118 97 149 6.0 9.0 0.00 0.00 0.00 27 1011.7
20260905222613 97 158 6.0 12.0 0.00 0.00 0.00 28 1011.5
20260905222108 97 207 11.0 16.0 0.00 0.00 0.00 28 1011.6
20260905221604 98 153 7.0 13.0 0.00 0.00 0.00 29 1011.2
20260905221100 97 199 12.0 15.0 0.00 0.00 0.00 28 1011.7
20260905220555 97 196 8.0 12.0 0.00 0.00 0.00 28 1011.7
20260905220052 97 202 12.0 13.0 0.00 0.00 0.00 28 1011.6
20260905215551 97 193 5.0 8.0 0.00 0.00 0.00 27 1011.7
20260905215047 97 204 7.0 13.0 0.00 0.00 0.00 28 1011.8
20260905214542 98 219 11.0 14.0 0.00 0.00 0.00 28 1011.8
20260905214037 97 198 6.0 17.0 0.00 0.00 0.00 28 1011.8
20260905213533 97 160 5.0 13.0 0.00 0.00 0.00 28 1012.2
20260905213028 97 233 9.0 15.0 0.00 0.00 0.00 29 1012.0
20260905212523 97 191 6.0 13.0 0.00 0.00 0.00 29 1012.1
20260905212022 97 247 4.0 12.0 0.00 0.00 0.00 30 1012.1
20260905211518 97 196 10.0 13.0 0.00 0.00 0.00 30 1012.2
20260905211014 97 148 8.0 13.0 0.00 0.00 0.00 30 1012.2
20260905210509 97 183 6.0 15.0 0.00 0.00 0.00 29 1012.5
20260905210008 97 147 7.0 9.0 0.00 0.00 0.00 29 1012.5
20260905205503 98 220 8.0 13.0 0.00 0.00 0.00 29 1012.6
20260905205002 98 237 10.0 15.0 0.00 0.00 0.00 29 1012.6
20260905204457 98 208 8.0 14.0 0.00 0.00 0.00 29 1012.6
20260905203956 98 222 3.0 11.0 0.00 0.00 0.00 30 1012.7
20260905203452 98 196 7.0 10.0 0.00 0.00 0.00 30 1012.9
20260905202948 97 181 3.0 14.0 0.00 0.00 0.00 31 1013.1
20260905202442 97 158 12.0 13.0 0.00 0.00 0.00 30 1013.0
20260905201937 97 183 2.0 8.0 0.00 0.00 0.00 30 1013.0
20260905201432 96 220 17.0 19.0 0.00 0.00 0.00 30 1013.1
20260905200927 97 189 11.0 15.0 0.00 0.00 0.00 30 1013.2
20260905200423 96 192 9.0 16.0 0.00 0.00 0.00 30 1013.2
20260905195921 97 164 6.0 11.0 0.00 0.00 0.00 30 1013.5
20260905195417 96 231 3.0 10.0 0.00 0.00 0.00 32 1013.3
20260905194912 96 218 9.0 12.0 0.00 0.00 0.00 31 1013.5
20260905194411 96 168 6.0 12.0 0.00 0.00 0.00 31 1013.3
20260905193906 96 177 8.0 14.0 0.00 0.00 0.00 32 1013.5
20260905193401 95 201 9.0 18.0 0.00 0.00 0.00 32 1013.5
20260905192856 95 156 4.0 12.0 0.00 0.00 0.00 34 1013.5
20260905192351 96 163 11.0 17.0 0.00 0.00 0.00 32 1013.9
20260905191851 96 170 6.0 15.0 0.00 0.00 0.00 32 1013.9
20260905191350 95 157 7.0 11.0 0.00 0.00 0.00 33 1013.9
20260905190849 95 154 10.0 13.0 0.00 0.00 0.00 33 1013.8
20260905190343 95 165 5.0 12.0 0.00 0.00 0.00 33 1013.8
20260905185842 94 231 4.0 14.0 0.00 0.00 0.00 34 1013.8
20260905185337 95 215 14.0 17.0 0.00 0.00 0.00 31 1013.9
20260905184836 94 226 9.0 15.0 0.00 0.00 0.00 35 1014.0
20260905184335 94 220 8.0 20.0 0.00 0.00 0.00 34 1014.1
20260905183834 94 200 6.0 15.0 0.00 0.00 0.00 35 1014.2
20260905183330 94 227 8.0 13.0 0.00 0.00 0.00 35 1014.2
20260905182829 94 187 5.0 12.0 0.00 0.00 0.00 36 1014.2
20260905182324 93 180 5.0 14.0 0.00 0.00 0.00 36 1014.3
20260905181820 93 184 4.0 12.0 0.00 0.00 0.00 37 1014.5
20260905181319 93 153 14.0 15.0 0.00 0.00 0.00 36 1014.2
20260905180818 93 182 3.0 12.0 0.00 0.00 0.00 37 1014.7
20260905180313 92 203 9.0 14.0 0.00 0.00 0.00 37 1014.6
20260905175808 92 216 5.0 15.0 0.00 0.00 0.00 39 1014.6
20260905175306 92 230 8.0 15.0 0.00 0.00 0.00 39 1014.7
20260905174758 92 160 9.0 13.0 0.00 0.00 0.00 39 1014.8
20260905174254 91 161 5.0 11.0 0.00 0.00 0.00 39 1014.7
20260905173749 91 224 15.0 17.0 0.00 0.00 0.00 39 1015.1
20260905173245 91 218 13.0 16.0 0.00 0.00 0.00 39 1014.8
20260905172744 91 196 6.0 14.0 0.00 0.00 0.00 41 1015.0
20260905172243 90 220 9.0 16.0 0.00 0.00 0.00 42 1015.0
20260905171740 89 180 8.0 15.0 0.00 0.00 0.00 43 1014.7
20260905171236 89 202 7.0 15.0 0.00 0.00 0.00 42 1015.0
20260905170732 89 177 5.0 15.0 0.00 0.00 0.00 44 1014.9
20260905170228 89 174 6.0 15.0 0.00 0.00 0.00 46 1015.0
20260905165727 88 170 9.0 12.0 0.00 0.00 0.00 45 1015.1
20260905165217 88 179 8.0 12.0 0.00 0.00 0.00 46 1015.1
20260905164716 87 210 2.0 12.0 0.00 0.00 0.00 47 1014.9
20260905164211 87 175 11.0 13.0 0.00 0.00 0.00 48 1014.7
20260905163707 86 209 10.0 13.0 0.00 0.00 0.00 48 1015.0
20260905163203 86 218 6.0 14.0 0.00 0.00 0.00 49 1015.4
20260905162659 85 203 4.0 15.0 0.00 0.00 0.00 51 1014.9
20260905162158 85 218 8.0 13.0 0.00 0.00 0.00 50 1015.2
20260905161653 84 219 10.0 14.0 0.00 0.00 0.00 50 1015.1
20260905161151 84 217 11.0 15.0 0.00 0.00 0.00 51 1015.2
20260905160645 83 205 7.0 15.0 0.00 0.00 0.00 52 1015.1
20260905160144 84 192 10.0 17.0 0.00 0.00 0.00 52 1015.0
20260905155639 83 219 11.0 16.0 0.00 0.00 0.00 53 1015.1
20260905155138 83 230 11.0 15.0 0.00 0.00 0.00 53 1015.1
20260905154638 82 204 5.0 17.0 0.00 0.00 0.00 54 1015.0
20260905154134 82 212 9.0 17.0 0.00 0.00 0.00 54 1015.1
20260905153629 82 200 11.0 16.0 0.00 0.00 0.00 54 1015.0
20260905153125 82 212 11.0 15.0 0.00 0.00 0.00 54 1015.2
20260905152619 81 217 12.0 17.0 0.00 0.00 0.00 56 1015.2
20260905152114 81 207 10.0 20.0 0.00 0.00 0.00 56 1015.0
20260905151609 81 225 13.0 14.0 0.00 0.00 0.00 57 1015.2
20260905151104 80 204 10.0 15.0 0.00 0.00 0.00 58 1015.1
20260905150600 80 203 12.0 17.0 0.00 0.00 0.00 58 1014.9
20260905150057 80 202 14.0 15.0 0.00 0.00 0.00 58 1015.1
20260905145551 79 209 5.0 13.0 0.00 0.00 0.00 59 1015.2
20260905145050 79 182 6.0 12.0 0.00 0.00 0.00 59 1015.1
20260905144545 79 224 3.0 11.0 0.00 0.00 0.00 59 1015.1
20260905144044 79 182 5.0 7.0 0.00 0.00 0.00 59 1015.1
20260905143538 78 189 7.0 12.0 0.00 0.00 0.00 60 1015.5
20260905143033 78 197 4.0 11.0 0.00 0.00 0.00 61 1015.2
20260905142532 78 187 7.0 12.0 0.00 0.00 0.00 60 1015.1
20260905142027 78 225 3.0 8.0 0.00 0.00 0.00 61 1015.1
20260905141521 77 212 7.0 10.0 0.00 0.00 0.00 62 1015.4
20260905141018 78 202 8.0 13.0 0.00 0.00 0.00 62 1015.0
20260905140513 77 179 4.0 7.0 0.00 0.00 0.00 62 1015.1
20260905140011 77 180 3.0 10.0 0.00 0.00 0.00 63 1015.0
20260905135507 76 216 6.0 9.0 0.00 0.00 0.00 63 1015.4